User: anonymous   Login
Location: Bittelbronn
(48.4454°N, 8.5870°E)
Time: 17:37:37
(UTC+00:00)
Language:

ZHANGZHENG-1 - Orbit

View from above orbital plane
View from above orbital plane
View from above satellite
View from above satellite

Ground track
Ground track

The orbit data is extracted from the following two-line orbital elements,

1 43194U 18015C   24282.50723764  .00068808  00000-0  30373-2 0  9996
2 43194  97.6237  67.4386 0003463 145.7142 214.4317 15.21472586370914
Epoch (UTC): 08 October 2024 12:10:25
Eccentricity: 0.0003463
inclination: 97.6237°
perigee height: 499 km
apogee height: 504 km
right ascension of ascending node: 67.4386°
argument of perigee: 145.7142°
revolutions per day: 15.21472586
mean anomaly at epoch: 214.4317°
orbit number at epoch: 37091

The dashed part of the orbit path shows where the satellite is in the earth's shadow,  

DLR